www.pogodaiklimat.ru

Погода и климат >> Архив погоды >> Австралия >> Gingin Aero


ПОГОДА в Gingin Aero

  • Прогноз погоды в Gingin Aero
  • Монитор погоды в Gingin Aero
  • Климат города

АРХИВ ПОГОДЫ в Gingin Aero

Время (UTC), дата Ветер
(напр.,м/с)
 
Видим.   Явления Облачность Т
(С)
Тd
(С)
f
(%)
Тe
(С)
Тes
(С)
Комфортность P
(гПа)
Po
(гПа)
Тmin
(С)
Tmax
(С)
R
(мм)
R24
(мм)
S
(см)
13 8.08 СЗ 5 н/о туман местами н/о +13.7 +12.3 91 +12 +12 1011.3 1002.4 +18.6
15 8.08 СЗ 5 н/о н/о +13.4 +12.3 93 +11 +11 1009.5 1000.6
16 8.08 СЗ 5 н/о в посл. час дождь {туман} н/о +13.8 +12.5 92 +12 +12 1008.6 999.7
18 8.08 СЗ 6 н/о н/о +14.7 +13.1 90 +13 +13 1006.5 997.6
19 8.08 СЗ 8 н/о в посл. час дождь {туман} н/о +15.0 +12.5 85 +13 +13 1005.2 996.3
21 8.08 ЮЗ 9 н/о н/о +12.1 +11.0 93 +9 +9 1006.0 997.1
22 8.08 З 8 н/о в посл. час дождь {туман} н/о +12.0 +10.7 92 +9 +9 1006.7 997.8
00 9.08 З 6 н/о н/о +12.1 +7.6 74 +10 +10 1009.1 1000.2
01 9.08 З 8 н/о в посл. час дождь {туман} н/о +14.2 +6.8 61 +12 +12 1009.8 1000.9 +11.4
03 9.08 З 8 н/о н/о +12.1 +7.6 74 +9 +9 1011.4 1002.5
04 9.08 З 7 н/о {туман} н/о +13.9 +7.2 64 +12 +12 1011.3 1002.4
06 9.08 З 13 н/о н/о +14.5 +4.5 51 +12 +12 1011.4 1002.5
07 9.08 ЮЗ 10 н/о {туман} н/о +13.8 +6.7 62 +11 +11 1012.3 1003.4
09 9.08 ЮЗ 6 н/о н/о +12.4 +5.8 64 +10 +10 1013.7 1004.8
10 9.08 З 5 н/о в посл. час дождь {туман} н/о +10.2 +6.7 79 +7 +7 1014.6 1005.7
12 9.08 Ю 5 н/о н/о +10.7 +5.9 72 +8 +8 1017.2 1008.2
13 9.08 Ю 3 н/о в посл. час дождь {туман} н/о +8.3 +5.1 80 +6 +6 1017.9 1008.9 +15.5
15 9.08 штиль 0 н/о н/о +7.9 +6.4 90 +7 +7 1020.0 1011.0
16 9.08 Ю 5 н/о туман местами н/о +7.8 +6.3 90 +4 +4 1021.2 1012.2
18 9.08 В 2 н/о н/о +6.8 +5.4 91 +4 +4 1021.5 1012.5
19 9.08 Ю 4 н/о туман местами н/о +6.9 +5.4 90 +3 +3 1022.8 1013.8
21 9.08 СЗ 3 н/о н/о +4.1 +2.9 92 +1 +1 1023.0 1014.0
22 9.08 СЗ 2 н/о {туман} н/о +3.6 +2.6 93 +1 +1 1024.3 1015.3
00 10.08 штиль 0 н/о н/о +5.2 +4.3 94 +4 +4 1026.4 1017.4
01 10.08 С 2 н/о {туман} н/о +8.1 +6.7 91 +6 +6 1027.1 1018.1 +2.0
03 10.08 Ю 4 н/о н/о +12.5 +3.7 55 +11 +11 1028.0 1018.9
04 10.08 Ю 6 н/о н/о +13.3 +3.4 51 +11 +11 1027.8 1018.7
06 10.08 Ю 5 н/о н/о +13.5 +3.6 51 +12 +12 1026.8 1017.8
07 10.08 Ю 6 н/о н/о +13.2 +3.0 50 +11 +11 1026.6 1017.6
09 10.08 ЮЗ 5 н/о н/о +12.8 +4.8 58 +11 +11 1028.7 1019.6
10 10.08 ЮЗ 3 н/о н/о +10.6 +5.2 69 +9 +9 1029.2 1020.1
12 10.08 штиль 0 н/о н/о +8.2 +5.0 80 +7 +7 1030.6 1021.5
13 10.08 штиль 0 н/о н/о +5.6 +3.3 85 +5 +5 1030.8 1021.7 +14.7
15 10.08 Ю 2 н/о н/о +4.1 +2.6 90 +2 +2 1030.7 1021.6
16 10.08 штиль 0 н/о н/о +4.5 +3.2 91 +3 +3 1030.4 1021.3
18 10.08 Ю 1 н/о н/о +3.5 +2.3 92 +3 +3 1030.0 1020.9
19 10.08 штиль 0 н/о н/о +2.4 +1.2 92 +1 +1 1029.8 1020.7
21 10.08 Ю 3 н/о н/о +2.6 +1.6 93 -1 -1 1029.2 1020.1
22 10.08 штиль 0 н/о н/о +1.1 +0.1 93 -0 -0 1029.8 1020.7
00 11.08 В 3 н/о н/о +6.0 +5.3 95 +3 +3 1031.1 1022.0
01 11.08 СВ 3 н/о н/о +10.1 +7.2 82 +8 +8 1031.6 1022.5 +0.4
03 11.08 СВ 4 н/о н/о +13.9 +5.8 58 +13 +13 1031.0 1021.9
04 11.08 СВ 3 н/о н/о +14.7 +5.5 54 +14 +14 1030.6 1021.5
06 11.08 СВ 3 н/о н/о +16.2 +6.1 51 +16 +16 1028.4 1019.3
07 11.08 С 3 н/о н/о +16.2 +4.9 47 +16 +16 1028.3 1019.2
09 11.08 С 2 н/о н/о +15.8 +5.1 49 +16 +16 1027.6 1018.5
10 11.08 С 2 н/о н/о +12.9 +6.7 66 +13 +13 1028.1 1019.0
12 11.08 СВ 3 н/о н/о +7.6 +4.9 83 +5 +5 1028.6 1019.5
13 11.08 СВ 4 н/о н/о +8.2 +6.0 86 +5 +5 1028.4 1019.3 +17.2
15 11.08 В 3 н/о н/о +5.8 +3.8 87 +3 +3 1028.2 1019.1
16 11.08 В 2 н/о н/о +5.1 +3.3 88 +2 +2 1027.8 1018.7
18 11.08 штиль 0 н/о н/о +2.4 +0.9 90 +1 +1 1027.0 1018.0
19 11.08 СВ 2 н/о н/о +2.8 +1.5 91 0 0 1026.4 1017.4
21 11.08 штиль 0 н/о н/о +1.4 -0.1 90 0 0 1025.8 1016.8
22 11.08 штиль 0 н/о н/о +1.8 +0.5 91 +1 +1 1026.2 1017.2
00 12.08 С 3 н/о н/о +7.9 +4.8 81 +5 +5 1026.6 1017.6
01 12.08 С 5 н/о н/о +12.4 +4.1 57 +10 +10 1026.9 1017.9 +0.6
03 12.08 С 6 н/о н/о +17.0 +3.3 40 +16 +16 1026.2 1017.2
04 12.08 С 7 н/о н/о +19.0 +2.0 32 +19 +19 1025.2 1016.2
06 12.08 С 6 н/о н/о +20.2 +2.5 31 +20 +20 1023.0 1014.0
07 12.08 С 5 н/о н/о +20.4 +1.8 29 +21 +21 комфорт 1023.1 1014.1
09 12.08 С 3 н/о н/о +19.5 +2.4 32 +20 +20 1023.1 1014.1
10 12.08 С 3 н/о н/о +13.7 +5.1 56 +13 +13 1022.9 1013.9
12 12.08 штиль 0 н/о н/о +8.9 +4.5 74 +8 +8 1023.5 1014.5
13 12.08 штиль 0 н/о н/о +7.6 +4.4 80 +7 +7 1023.3 1014.3 +21.2
15 12.08 штиль 0 н/о н/о +4.6 +2.5 86 +4 +4 1022.4 1013.4
16 12.08 С 2 н/о н/о +4.9 +3.1 88 +2 +2 1022.1 1013.1
18 12.08 С 3 н/о н/о +6.0 +4.2 88 +3 +3 1021.3 1012.3
19 12.08 СВ 3 н/о н/о +6.8 +4.6 86 +4 +4 1020.6 1011.6
21 12.08 СВ 3 н/о н/о +4.8 +2.8 87 +2 +2 1019.4 1010.4
22 12.08 С 3 н/о н/о +5.3 +3.3 87 +2 +2 1019.5 1010.5
00 13.08 СВ 5 н/о н/о +10.5 +3.8 63 +8 +8 1020.0 1011.0
01 13.08 С 6 н/о н/о +14.1 +2.4 45 +12 +12 1019.8 1010.8 +2.6
03 13.08 С 6 н/о н/о +19.5 +3.2 34 +20 +20 1019.3 1010.3
04 13.08 С 6 н/о н/о +20.7 +3.4 32 +21 +21 комфорт 1018.3 1009.3
06 13.08 СЗ 9 н/о н/о +23.2 -0.3 21 +22 +22 комфорт 1016.3 1007.3
07 13.08 С 8 н/о н/о +23.5 +1.2 23 +23 +23 комфорт 1015.4 1006.5
09 13.08 С 6 н/о н/о +21.1 +3.3 31 +21 +21 комфорт 1014.9 1006.0
10 13.08 С 5 н/о н/о +18.5 +3.2 36 +18 +18 1015.2 1006.3
12 13.08 С 3 н/о н/о +13.8 +5.7 58 +13 +13 1016.2 1007.2
13 13.08 С 3 н/о н/о +13.0 +5.4 60 +12 +12 1016.5 1007.5 +24.2
15 13.08 С 5 н/о н/о +13.7 +7.2 65 +12 +12 1016.4 1007.4
16 13.08 С 5 н/о н/о +14.6 +10.4 76 +13 +13 1016.1 1007.1
18 13.08 З 7 н/о н/о +14.0 +12.6 91 +12 +12 1016.3 1007.3
19 13.08 З 2 н/о туман местами н/о +13.6 +12.5 93 +13 +13 1016.1 1007.1
21 13.08 З 3 н/о н/о +13.3 +12.4 94 +12 +12 1016.5 1007.5
22 13.08 С 2 н/о {туман} н/о +13.0 +12.1 94 +12 +12 1016.6 1007.6
00 14.08 З 2 н/о н/о +13.6 +12.7 94 +13 +13 1018.0 1009.0
01 14.08 З 2 н/о в посл. час дождь {туман} н/о +14.5 +13.4 93 +14 +14 1019.0 1010.0 +10.4
03 14.08 ЮЗ 7 н/о н/о +16.4 +8.6 60 +15 +15 1019.5 1010.5
04 14.08 ЮЗ 6 н/о н/о +17.5 +7.8 53 +17 +17 1019.3 1010.3
06 14.08 ЮЗ 7 н/о н/о +16.9 +6.4 50 +16 +16 1019.0 1010.0
07 14.08 З 7 н/о н/о +17.4 +7.7 53 +17 +17 1019.1 1010.1
09 14.08 ЮЗ 6 н/о н/о +15.9 +7.9 59 +15 +15 1020.2 1011.2
10 14.08 З 4 н/о н/о +14.3 +8.7 69 +13 +13 1020.8 1011.8
12 14.08 штиль 0 н/о н/о +9.2 +7.2 87 +8 +8 1021.7 1012.7
13 14.08 С 2 н/о н/о +9.0 +7.5 90 +8 +8 1022.4 1013.4 +18.3
15 14.08 ЮВ 3 н/о н/о +11.6 +10.5 93 +10 +10 1022.7 1013.7
16 14.08 ЮВ 3 н/о {туман} н/о +11.6 +10.5 93 +10 +10 1022.7 1013.7
18 14.08 штиль 0 н/о н/о +11.2 +10.3 94 +10 +10 1022.7 1013.7
19 14.08 СВ 1 н/о {туман} н/о +9.5 +8.6 94 +10 +10 1022.6 1013.6
21 14.08 штиль 0 н/о н/о +10.4 +9.6 95 +10 +10 1022.9 1013.9
22 14.08 СВ 1 н/о н/о +10.6 +9.8 95 +11 +11 1023.2 1014.2
00 15.08 СВ 2 н/о н/о +11.3 +10.5 95 +10 +10 1024.2 1015.2
01 15.08 В 2 н/о н/о +12.5 +11.2 92 +11 +11 1024.9 1015.9 +8.4
03 15.08 Ю 4 н/о н/о +16.2 +7.2 55 +16 +16 1024.6 1015.6
04 15.08 Ю 5 н/о н/о +16.6 +5.9 49 +16 +16 1024.1 1015.1
06 15.08 ЮЗ 5 н/о н/о +17.9 +6.1 46 +18 +18 1022.7 1013.7
07 15.08 ЮЗ 6 н/о н/о +17.1 +6.6 50 +16 +16 1022.6 1013.6
09 15.08 ЮЗ 3 н/о н/о +16.3 +7.0 54 +16 +16 1022.8 1013.8
10 15.08 ЮЗ 4 н/о н/о +13.5 +7.7 68 +12 +12 1023.2 1014.2

 

Местоположение метеостанции Gingin Aero (Западная Австралия, Австралия): широта -31.47 долгота 115.87 высота над уровнем моря 75 м.

В архиве по умолчанию представлена погода в Gingin Aero за последнюю неделю. Архивные данные за месяц целиком и за предыдущие месяцы, начиная с января 2011 года, Вы можете получить, выбрав интересующий диапазон дат из раскрывающегося списка и нажав кнопку "Ввод!".


*Определитесь, кто Вы:
робот инопланетянин человек

Внимание! Время в таблицах - всемирное. Для получения местного времени необходимо прибавить поправку, которая в Gingin Aero равна 8 ч.

Смотрите также архив погоды в соседних городах и на ближайших метеорологических станциях:

Погода в Bullsbrook Pearce Amo (Западная Австралия, Австралия) (26 км)
Погода в Wanneroo (Западная Австралия, Австралия) (35 км)
Погода в Mount Lawley Perth Metro (Западная Австралия, Австралия) (50 км)
Погода в Perth (Западная Австралия, Австралия) (52 км)
Погода в Swanbourne (Западная Австралия, Австралия) (54 км)
Погода в Goosebery Hill (Западная Австралия, Австралия) (56 км)
Погода в Kalamunda Bickley (Западная Австралия, Австралия) (66 км)
Погода в Perth Jandakot Airport (Западная Австралия, Австралия) (70 км)
Погода в Rottnest Island (Западная Австралия, Австралия) (70 км)
Погода в Garden Island Airpoet (Западная Австралия, Австралия) (86 км)

Пояснения к столбцам:

Ветер - указаны скорость ветра в м/с - средняя за 10 мин, порывы в срок и между сроками (в фигурных скобках) и направление, откуда дует ветер: С - северный, СВ - северо-восточный, В - восточный, ЮВ - юго-восточный, Ю - южный, ЮЗ - юго-западный, З - западный, СЗ - северо-западный.
Видимость - горизонтальная дальность видимости в метрах или километрах. При видимости от 1 до 10 км при отсутствии осадков обычно наблюдается дымка, при ухудшении видимости до 1 км и менее - туман. В сухую погоду видимость может ухудшаться дымом, пылью или мглою.
Явления - указаны атмосферные явления, наблюдавшиеся в срок или в последний час перед сроком; фигурными скобками обозначены явления, наблюдавшиеся между сроками (за 1-3 часа до срока); квадратными скобками обозначены град или гололедные отложения с указанием их диаметра в мм.
Облачность - указаны через наклонную черту общая и нижняя облачность в баллах и высота нижней границы облаков в метрах; квадратными скобками обозначены формы облаков: Ci - перистые, Cs - перисто-слоистые, Cc - перисто-кучевые, Ac - высококучевые, As - высокослоистые, Sc - слоисто-кучевые, Ns - слоисто-дождевые, Cu - кучевые, Cb - кучево-дождевые. Подробнее классификацию облаков см. в Атласе облаков (PDF).
T - Температура воздуха - температура, измеренная на высоте 2 м над землей.
Td - Температура точки росы - температура, при понижении до которой содержащийся в воздухе водяной пар достигнет насыщения.
f - Относительная влажность воздуха - влажноcть воздуха, измеренная на высоте 2 м над землей.
Te - Эффективная температура - температура, которую ощущает одетый по сезону человек в тени. Характеристика душности погоды. При расчете учитывается влияние влажности воздуха и скорости ветра на теплоощущения человека.
Tes - Эффективная температура на солнце - температура, которую ощущает человек, с поправкой на солнечный нагрев. Характеристика знойности погоды. Зависит от высоты солнца над горизонтом, облачности и скорости ветра. Ночью, в пасмурную погоду, а также при ветре 12 м/с и более поправка равна нулю.
P - Атмосферное давление - приведенное к уровню моря атмосферное давление.
Po - Атмосферное давление - измеренное на уровне метеостанции атмосферное давление.
Tmin - Минимальная температура - минимум температуры воздуха на высоте 2 м над землей.
Tmax - Максимальная температура - максимум температуры воздуха на высоте 2 м над землей.
R - Количество осадков - Количество выпавших осадков за период времени, мм. При наведении курсора мыши на число - период времени, за который выпало указанное количество осадков.
R24 - Количество осадков - Количество выпавших осадков за 24 часа, мм.
S - Снежный покров - Высота снежного покрова, см. При наведении курсора мыши на число - состояние снежного покрова и степень покрытия местности в баллах.